timestamp,wind_dir_avg,wind_spd_avg,wind_spd_max_dir,wind_spd_gust,battery_voltage,lat,long
2020-11-08 00:04:01+00:00,323.0,8.29,323.0,9.93,12.65,47.59359,-54.27349
2020-11-08 00:14:01+00:00,342.0,7.03,349.0,8.31,12.57,47.59359,-54.27349
2020-11-08 00:24:01+00:00,347.0,9.12,350.0,9.96,12.57,47.59359,-54.27349
2020-11-08 00:34:01+00:00,353.0,9.82,356.0,10.76,12.57,47.59359,-54.27349
2020-11-08 00:44:01+00:00,342.0,8.2,342.0,9.01,12.57,47.59359,-54.27349
2020-11-08 00:54:01+00:00,346.0,8.86,343.0,11.28,12.57,47.59359,-54.27349
2020-11-08 01:04:01+00:00,338.0,11.44,340.0,13.38,12.57,47.59359,-54.27349
2020-11-08 01:14:01+00:00,344.0,11.99,347.0,13.76,12.57,47.59359,-54.27349
2020-11-08 01:24:01+00:00,347.0,12.47,350.0,13.82,12.57,47.59359,-54.27349
2020-11-08 01:34:01+00:00,346.0,11.21,345.0,12.9,12.57,47.59359,-54.27349
2020-11-08 01:44:01+00:00,352.0,10.59,356.0,12.26,12.57,47.59359,-54.27349
2020-11-08 01:54:01+00:00,349.0,9.78,349.0,11.68,12.57,47.59359,-54.27349
2020-11-08 02:04:01+00:00,348.0,8.33,350.0,9.97,12.57,47.59359,-54.27349
2020-11-08 02:14:01+00:00,339.0,8.94,348.0,10.72,12.57,47.59359,-54.27349
2020-11-08 02:24:01+00:00,339.0,8.5,336.0,9.96,12.57,47.59359,-54.27349
2020-11-08 02:34:01+00:00,331.0,6.57,331.0,8.05,12.57,47.59359,-54.27349
2020-11-08 02:44:01+00:00,336.0,7.81,330.0,9.0,12.57,47.59359,-54.27349
2020-11-08 02:54:01+00:00,336.0,8.16,333.0,9.55,12.57,47.59359,-54.27349
2020-11-08 03:04:01+00:00,333.0,7.22,333.0,8.74,12.57,47.59359,-54.27349
2020-11-08 03:14:01+00:00,335.0,6.94,333.0,8.33,12.49,47.59359,-54.27349
2020-11-08 03:24:01+00:00,336.0,8.93,333.0,10.51,12.49,47.59359,-54.27349
2020-11-08 03:34:01+00:00,342.0,8.06,346.0,9.5,12.49,47.59359,-54.27349
2020-11-08 03:44:01+00:00,343.0,8.25,345.0,10.71,12.49,47.59359,-54.27349
2020-11-08 03:54:01+00:00,342.0,9.28,346.0,10.49,12.49,47.59359,-54.27349
2020-11-08 04:04:01+00:00,341.0,7.47,1.0,8.97,12.49,47.59359,-54.27349
2020-11-08 04:14:01+00:00,354.0,9.33,353.0,10.86,12.49,47.59359,-54.27349
2020-11-08 04:24:01+00:00,356.0,7.97,353.0,10.11,12.49,47.59359,-54.27349
2020-11-08 04:34:01+00:00,345.0,8.16,343.0,9.39,12.49,47.59359,-54.27349
2020-11-08 04:44:01+00:00,336.0,8.11,339.0,9.44,12.49,47.59359,-54.27349
2020-11-08 04:54:01+00:00,332.0,7.55,335.0,8.49,12.49,47.59359,-54.27349
2020-11-08 05:04:01+00:00,345.0,6.85,339.0,7.91,12.49,47.59359,-54.27349
2020-11-08 05:14:01+00:00,340.0,6.44,337.0,7.25,12.41,47.59359,-54.27349
2020-11-08 05:24:01+00:00,335.0,6.63,334.0,7.89,12.41,47.59359,-54.27349
2020-11-08 05:34:01+00:00,337.0,7.17,344.0,8.3,12.41,47.59359,-54.27349
2020-11-08 05:44:01+00:00,325.0,7.19,324.0,8.56,12.41,47.59359,-54.27349
2020-11-08 05:54:01+00:00,320.0,6.48,323.0,7.09,12.41,47.59359,-54.27349
2020-11-08 06:04:01+00:00,323.0,6.86,324.0,8.0,12.41,47.59359,-54.27349
2020-11-08 06:14:01+00:00,326.0,6.41,327.0,7.63,12.41,47.59359,-54.27349
2020-11-08 06:24:01+00:00,326.0,5.89,331.0,6.96,12.41,47.59359,-54.27349
2020-11-08 06:34:01+00:00,325.0,6.4,323.0,7.76,12.41,47.59359,-54.27349
2020-11-08 06:44:01+00:00,336.0,7.51,345.0,8.96,12.41,47.59359,-54.27349
2020-11-08 06:54:01+00:00,341.0,7.79,345.0,9.23,12.41,47.59359,-54.27349
2020-11-08 07:04:01+00:00,335.0,7.8,330.0,10.05,12.41,47.59359,-54.27349
2020-11-08 07:14:01+00:00,349.0,7.97,354.0,9.02,12.41,47.59359,-54.27349
2020-11-08 07:24:01+00:00,344.0,9.2,341.0,10.88,12.41,47.59359,-54.27349
2020-11-08 07:34:01+00:00,346.0,7.98,357.0,9.58,12.41,47.59359,-54.27349
2020-11-08 07:44:01+00:00,344.0,8.07,334.0,10.27,12.41,47.59359,-54.27349
2020-11-08 07:54:01+00:00,340.0,8.15,342.0,9.81,12.41,47.59359,-54.27349
2020-11-08 08:04:01+00:00,334.0,9.57,339.0,13.19,12.41,47.59359,-54.27349
2020-11-08 08:14:01+00:00,343.0,9.61,343.0,10.85,12.41,47.59359,-54.27349
2020-11-08 08:24:01+00:00,338.0,8.8,338.0,9.69,12.41,47.59359,-54.27349
2020-11-08 08:34:01+00:00,347.0,8.08,343.0,9.17,12.41,47.59359,-54.27349
2020-11-08 08:44:01+00:00,339.0,8.63,351.0,9.63,12.41,47.59359,-54.27349
2020-11-08 08:54:01+00:00,350.0,8.14,355.0,9.49,12.41,47.59359,-54.27349
2020-11-08 09:04:01+00:00,343.0,7.65,340.0,8.99,12.41,47.59359,-54.27349
2020-11-08 09:14:01+00:00,328.0,7.19,321.0,8.17,12.33,47.59359,-54.27349
2020-11-08 09:24:01+00:00,334.0,6.52,332.0,7.59,12.33,47.59359,-54.27349
2020-11-08 09:34:01+00:00,345.0,7.71,344.0,8.69,12.33,47.59359,-54.27349
2020-11-08 09:44:01+00:00,352.0,7.1,355.0,8.32,12.33,47.59359,-54.27349
2020-11-08 09:54:01+00:00,358.0,6.67,357.0,7.95,12.33,47.59359,-54.27349
2020-11-08 10:04:01+00:00,356.0,6.47,359.0,7.27,12.33,47.59359,-54.27349
2020-11-08 10:14:01+00:00,358.0,5.99,356.0,7.0,12.33,47.59359,-54.27349
2020-11-08 10:24:01+00:00,4.0,6.3,2.0,7.37,12.33,47.59359,-54.27349
2020-11-08 10:34:01+00:00,359.0,5.8,355.0,6.75,12.33,47.59359,-54.27349
2020-11-08 10:44:01+00:00,356.0,5.75,3.0,7.19,12.33,47.59359,-54.27349
2020-11-08 10:54:01+00:00,1.0,5.67,0.0,6.84,12.33,47.59359,-54.27349
2020-11-08 11:04:01+00:00,344.0,6.2,340.0,6.96,12.33,47.59359,-54.27349
2020-11-08 11:14:01+00:00,350.0,7.22,348.0,8.24,13.13,47.59359,-54.27349
2020-11-08 11:24:01+00:00,358.0,7.36,2.0,8.18,13.13,47.59359,-54.27349
2020-11-08 11:34:01+00:00,359.0,6.03,359.0,6.94,13.13,47.59359,-54.27349
2020-11-08 11:44:01+00:00,344.0,6.59,348.0,7.6,13.13,47.59359,-54.27349
2020-11-08 11:54:01+00:00,357.0,6.54,0.0,8.15,13.13,47.59359,-54.27349
2020-11-08 12:04:01+00:00,5.0,5.88,3.0,6.43,13.13,47.59359,-54.27349
2020-11-08 12:14:01+00:00,358.0,5.28,2.0,6.38,14.4,47.59359,-54.27349
2020-11-08 12:24:01+00:00,358.0,4.12,1.0,5.02,14.4,47.59359,-54.27349
2020-11-08 12:34:01+00:00,2.0,4.63,0.0,5.24,14.4,47.59359,-54.27349
2020-11-08 12:44:01+00:00,18.0,3.45,31.0,4.3,14.4,47.59359,-54.27349
2020-11-08 12:54:01+00:00,0.0,4.32,10.0,5.54,14.4,47.59359,-54.27349
2020-11-08 13:04:01+00:00,348.0,4.35,346.0,5.29,14.4,47.59359,-54.27349
2020-11-08 13:14:01+00:00,328.0,3.33,342.0,4.0,13.68,47.59359,-54.27349
2020-11-08 13:24:01+00:00,334.0,2.79,320.0,3.69,13.68,47.59359,-54.27349
2020-11-08 13:34:01+00:00,322.0,3.66,315.0,4.1,13.68,47.59359,-54.27349
2020-11-08 13:44:01+00:00,346.0,2.61,354.0,3.01,13.68,47.59359,-54.27349
2020-11-08 13:54:01+00:00,351.0,5.24,334.0,6.32,13.68,47.59359,-54.27349
2020-11-08 14:04:01+00:00,350.0,6.09,345.0,7.65,13.68,47.59359,-54.27349
2020-11-08 14:14:01+00:00,359.0,6.94,3.0,8.02,13.68,47.59359,-54.27349
2020-11-08 14:24:01+00:00,18.0,4.58,18.0,6.25,13.68,47.59359,-54.27349
2020-11-08 14:34:01+00:00,345.0,7.38,350.0,9.56,13.68,47.59359,-54.27349
2020-11-08 14:44:01+00:00,353.0,6.12,357.0,7.61,13.68,47.59359,-54.27349
2020-11-08 14:54:01+00:00,358.0,4.86,0.0,6.56,13.68,47.59359,-54.27349
2020-11-08 15:04:01+00:00,338.0,5.67,341.0,6.62,13.68,47.59359,-54.27349
2020-11-08 15:14:01+00:00,342.0,4.27,349.0,4.88,13.68,47.59359,-54.27349
2020-11-08 15:24:01+00:00,1.0,4.2,0.0,4.89,13.68,47.59359,-54.27349
2020-11-08 15:34:01+00:00,0.0,4.28,2.0,4.63,13.68,47.59359,-54.27349
2020-11-08 15:44:01+00:00,343.0,3.41,346.0,4.58,13.68,47.59359,-54.27349
2020-11-08 15:54:01+00:00,350.0,4.34,352.0,4.9,13.68,47.59359,-54.27349
2020-11-08 16:04:01+00:00,342.0,4.64,348.0,5.25,13.68,47.59359,-54.27349
2020-11-08 16:14:01+00:00,0.0,5.04,357.0,5.78,13.68,47.59359,-54.27349
2020-11-08 16:24:01+00:00,0.0,5.27,359.0,6.63,13.68,47.59359,-54.27349
2020-11-08 16:34:01+00:00,354.0,5.98,353.0,6.91,13.68,47.59359,-54.27349
2020-11-08 16:44:01+00:00,358.0,5.69,359.0,6.42,13.68,47.59359,-54.27349
2020-11-08 16:54:01+00:00,339.0,4.48,332.0,5.75,13.68,47.59359,-54.27349
2020-11-08 17:04:01+00:00,353.0,5.14,350.0,6.1,13.68,47.59359,-54.27349
2020-11-08 17:14:01+00:00,347.0,6.26,345.0,7.24,14.24,47.59359,-54.27349
2020-11-08 17:24:01+00:00,333.0,4.45,341.0,5.23,14.24,47.59359,-54.27349
2020-11-08 17:34:01+00:00,338.0,4.95,340.0,5.6,14.24,47.59359,-54.27349
2020-11-08 17:44:01+00:00,331.0,3.29,319.0,5.2,14.24,47.59359,-54.27349
2020-11-08 17:54:01+00:00,327.0,5.06,325.0,6.22,14.24,47.59359,-54.27349
2020-11-08 18:04:01+00:00,314.0,6.42,314.0,7.63,14.24,47.59359,-54.27349
2020-11-08 18:14:01+00:00,314.0,5.88,317.0,6.93,14.16,47.59359,-54.27349
2020-11-08 18:24:01+00:00,315.0,5.25,321.0,6.38,14.16,47.59359,-54.27349
2020-11-08 18:34:01+00:00,311.0,6.62,314.0,7.65,14.16,47.59359,-54.27349
2020-11-08 18:44:01+00:00,339.0,6.65,337.0,7.97,14.16,47.59359,-54.27349
2020-11-08 18:54:01+00:00,322.0,6.07,325.0,7.15,14.16,47.59359,-54.27349
2020-11-08 19:04:01+00:00,321.0,7.44,324.0,9.11,14.16,47.59359,-54.27349
2020-11-08 19:14:01+00:00,319.0,6.01,320.0,6.79,13.53,47.59359,-54.27349
2020-11-08 19:24:01+00:00,333.0,6.65,325.0,8.17,13.53,47.59359,-54.27349
2020-11-08 19:34:01+00:00,303.0,6.82,306.0,8.05,13.53,47.59359,-54.27349
2020-11-08 19:44:01+00:00,332.0,5.83,326.0,6.68,13.53,47.59359,-54.27349
2020-11-08 19:54:01+00:00,320.0,5.1,316.0,6.34,13.53,47.59359,-54.27349
2020-11-08 20:04:01+00:00,325.0,4.95,326.0,5.58,13.53,47.59359,-54.27349
2020-11-08 20:14:01+00:00,325.0,4.44,328.0,5.19,13.05,47.59359,-54.27349
2020-11-08 20:24:01+00:00,314.0,5.23,304.0,6.2,13.05,47.59359,-54.27349
2020-11-08 20:34:01+00:00,300.0,5.33,304.0,6.47,13.05,47.59359,-54.27349
2020-11-08 20:44:01+00:00,299.0,4.93,301.0,5.69,13.05,47.59359,-54.27349
2020-11-08 20:54:01+00:00,326.0,3.99,331.0,4.6,13.05,47.59359,-54.27349
2020-11-08 21:04:01+00:00,326.0,3.76,320.0,4.48,13.05,47.59359,-54.27349
2020-11-08 21:14:01+00:00,316.0,4.4,318.0,4.9,12.73,47.59359,-54.27349
2020-11-08 21:24:01+00:00,296.0,4.45,303.0,5.58,12.73,47.59359,-54.27349
2020-11-08 21:34:01+00:00,317.0,5.07,319.0,5.74,12.73,47.59359,-54.27349
2020-11-08 21:44:01+00:00,290.0,4.08,292.0,4.62,12.73,47.59359,-54.27349
2020-11-08 21:54:01+00:00,298.0,4.47,297.0,5.05,12.73,47.59359,-54.27349
2020-11-08 22:04:01+00:00,296.0,4.29,295.0,5.18,12.73,47.59359,-54.27349
2020-11-08 22:14:01+00:00,274.0,3.77,273.0,4.53,12.65,47.59359,-54.27349
2020-11-08 22:24:01+00:00,281.0,3.74,279.0,4.51,12.65,47.59359,-54.27349
2020-11-08 22:34:01+00:00,282.0,4.65,280.0,5.33,12.65,47.59359,-54.27349
2020-11-08 22:44:01+00:00,284.0,4.76,287.0,5.8,12.65,47.59359,-54.27349
2020-11-08 22:54:01+00:00,287.0,4.28,290.0,4.96,12.65,47.59359,-54.27349
2020-11-08 23:04:01+00:00,286.0,4.6,280.0,5.19,12.65,47.59359,-54.27349
2020-11-08 23:14:01+00:00,281.0,4.92,284.0,5.43,12.65,47.59359,-54.27349
2020-11-08 23:24:01+00:00,276.0,5.02,275.0,5.98,12.65,47.59359,-54.27349
2020-11-08 23:34:01+00:00,277.0,5.2,282.0,6.02,12.65,47.59359,-54.27349
2020-11-08 23:44:01+00:00,270.0,5.14,274.0,5.72,12.65,47.59359,-54.27349
2020-11-08 23:54:01+00:00,275.0,5.71,272.0,7.19,12.65,47.59359,-54.27349
